User: anonymous   Login
Location: Chuathbaluk
(61.5726°N, 159.2454°W)
Time: 10:35:24
(UTC+00:00)
Language:

NOAA 15 - Orbit

View from above orbital plane
View from above orbital plane
View from above satellite
View from above satellite

Ground track
Ground track

The orbit data is extracted from the following two-line orbital elements,

1 25338U 98030A   21017.16098888  .00000013  00000-0  23936-4 0  9991
2 25338  98.6986  46.9131 0010423   7.0702 353.0623 14.26008911179684
Epoch (UTC): 17 January 2021 03:51:49
Eccentricity: 0.0010423
inclination: 98.6986°
perigee height: 797 km
apogee height: 812 km
right ascension of ascending node: 46.9131°
argument of perigee: 7.0702°
revolutions per day: 14.26008911
mean anomaly at epoch: 353.0623°
orbit number at epoch: 17968

The dashed part of the orbit path shows where the satellite is in the earth's shadow,  

DLR